Wind_Speed
27 27 27 27 26 26 25 25 25 23 22 22 23 23 23 23 24 23 22 20 19 19 20 21 22 23 23 22 21 20 20 19 19 21 24 25 25 25 25 27 28 27 26 26 26 26 26 26 25 23 23 22 22 21 20 19 18 17 16 16 17 16 14 12 10 14 23 27 27 30 32 34 35 36 37 40 42 43 42 41 40 38 38 38 39
27 27 27 26 26 26 25 25 24 23 23 23 23 24 24 24 24 22 21 19 18 19 21 22 22 23 23 22 22 21 20 20 21 23 26 26 26 26 26 28 28 27 27 26 26 25 25 25 24 23 22 22 21 21 20 19 19 18 18 17 18 19 17 16 14 14 20 29 31 32 33 33 34 36 37 38 40 42 43 43 41 38 38 38 38
26 26 26 25 25 25 24 23 23 23 23 24 24 24 24 24 22 20 20 19 18 20 21 22 23 23 23 23 22 22 22 22 23 25 26 26 26 26 27 28 27 27 27 26 24 24 24 23 23 22 22 21 21 20 20 20 20 19 20 20 20 21 21 20 18 17 20 27 31 32 33 34 34 36 37 37 39 40 40 41 41 39 39 38 38
25 25 25 24 23 23 23 23 24 24 24 24 25 25 24 23 21 19 19 19 20 22 22 23 24 24 24 24 23 22 23 24 25 25 25 26 26 26 26 27 27 27 25 24 23 22 22 22 22 21 22 22 21 20 20 20 20 20 21 21 21 22 24 24 22 21 21 24 29 31 31 32 32 34 36 37 38 38 37 38 40 40 40 39 38
25 25 24 24 24 24 25 25 25 24 25 25 25 25 24 22 20 18 18 20 22 24 24 24 24 24 24 24 23 23 24 24 25 25 24 24 24 25 26 26 25 24 23 22 21 20 20 20 20 20 21 22 22 21 20 20 20 20 21 22 22 23 24 25 25 24 23 23 28 30 31 30 31 31 34 36 38 39 37 37 38 40 41 41 39
26 26 26 26 27 27 27 26 26 25 26 26 25 24 23 21 19 18 18 22 25 25 25 26 25 25 24 24 24 26 26 26 25 24 23 22 22 23 24 24 23 22 21 20 19 19 19 19 19 20 21 21 22 21 20 21 21 21 22 22 23 24 25 26 26 26 24 24 26 29 30 30 30 31 33 35 35 36 38 40 41 39 38 40 42
27 27 28 29 29 29 28 27 27 27 27 27 25 23 21 20 19 19 20 24 27 27 27 27 26 25 25 25 27 28 28 28 26 24 23 21 21 22 22 22 21 20 19 19 18 18 19 19 20 21 21 21 22 21 21 21 21 21 21 23 24 24 25 26 27 26 25 25 25 27 28 30 29 30 33 34 32 31 33 37 40 41 39 38 39
29 29 29 30 30 30 29 29 29 29 28 27 25 22 21 19 19 21 23 25 27 27 28 28 27 26 25 26 27 27 27 27 26 25 23 21 20 20 20 20 20 19 18 18 18 18 19 20 20 21 21 21 20 20 21 21 21 21 21 22 23 24 25 26 26 26 25 24 24 26 27 28 29 31 33 33 31 31 33 33 34 38 41 38 36
30 31 30 30 30 30 30 30 30 30 28 27 24 22 21 20 21 23 24 26 28 28 28 28 27 26 25 26 25 24 23 24 23 23 23 22 20 20 19 18 18 17 17 17 17 18 18 18 19 20 19 19 18 18 19 20 20 20 21 21 23 24 24 26 26 25 25 24 24 25 25 26 29 32 32 32 31 33 36 35 32 35 40 39 37
31 31 30 30 30 30 30 31 30 30 29 27 25 22 21 22 23 24 25 27 28 28 28 28 27 26 26 25 24 21 20 20 20 20 20 20 20 19 18 17 16 15 15 16 16 16 17 17 17 18 18 18 17 17 18 19 18 18 18 20 22 23 24 26 26 25 24 23 24 26 24 24 29 32 30 32 33 34 36 34 32 34 35 33 33
30 30 30 29 30 30 31 31 31 30 29 27 25 22 22 22 24 25 27 28 27 28 28 27 27 25 25 24 22 20 19 18 17 16 16 17 17 17 17 16 15 15 14 15 15 15 15 16 16 17 18 18 18 17 18 19 18 16 16 18 20 22 25 25 26 27 25 24 26 27 24 25 31 33 31 33 35 34 34 33 31 32 30 25 23
30 29 29 29 30 31 31 31 31 30 29 27 25 22 22 23 25 27 27 27 27 27 27 27 26 25 23 23 21 20 18 16 15 14 14 14 15 15 15 15 15 15 14 14 14 15 15 15 16 16 17 18 18 18 18 19 18 16 16 17 17 20 23 25 26 28 27 25 26 28 28 27 31 34 34 35 36 35 34 33 31 30 29 25 22
29 29 30 30 30 31 31 31 31 30 29 28 25 23 23 24 26 27 27 27 27 26 26 26 25 24 23 22 20 19 17 15 14 13 13 13 13 14 14 15 15 14 14 14 13 14 15 15 15 15 16 17 18 18 18 19 18 17 16 17 18 20 22 24 26 27 28 27 26 29 31 30 31 34 36 36 36 35 34 34 33 31 29 28 28
30 30 30 31 31 31 32 31 31 30 30 28 25 23 23 24 26 26 27 27 26 26 26 25 24 23 22 20 19 17 16 14 13 12 13 12 12 13 14 14 14 13 12 12 13 13 14 14 15 15 15 16 17 18 19 19 19 18 18 18 19 20 22 25 27 28 29 30 28 30 32 32 32 34 37 36 34 34 35 35 34 32 30 31 31
30 31 31 31 31 32 32 32 31 31 30 28 26 25 24 24 25 26 26 26 26 25 25 24 23 22 20 18 17 15 14 13 13 13 14 14 12 12 12 13 12 11 10 11 11 11 12 13 14 14 14 15 16 18 19 19 18 19 19 19 20 21 22 25 27 28 29 30 30 31 33 34 34 34 35 35 33 34 34 33 32 29 29 30 29
30 31 31 31 31 31 31 32 32 31 31 29 27 26 24 24 24 25 26 26 25 25 24 23 22 21 19 17 16 15 14 13 13 14 14 14 12 11 11 11 9 9 9 10 10 9 10 11 12 13 13 13 15 17 18 18 18 19 20 20 21 21 22 24 26 27 28 29 30 32 33 34 35 34 35 35 33 34 34 32 31 29 28 26 25
30 30 31 31 32 32 33 33 32 32 31 30 28 26 25 24 23 24 26 26 25 24 23 22 21 20 18 17 16 16 16 15 15 14 14 13 11 9 9 8 8 7 7 8 8 8 9 10 11 12 12 12 14 16 18 19 19 19 20 21 22 23 23 23 25 26 28 28 30 33 34 36 37 36 37 36 35 35 34 32 34 33 27 20 18
30 31 31 32 32 33 33 33 33 32 31 30 29 27 25 24 23 23 25 26 26 24 23 22 20 19 18 17 16 17 17 16 15 14 13 11 9 8 7 6 5 5 5 6 7 7 8 9 10 11 12 12 13 15 18 19 18 19 20 21 22 23 24 24 26 27 29 30 32 34 36 38 39 39 39 39 38 38 35 33 35 35 28 19 18
33 34 34 35 35 34 33 32 32 32 31 30 29 27 26 25 24 23 24 26 26 25 23 22 20 18 17 16 16 16 16 16 14 13 13 11 8 7 6 5 4 4 5 6 6 7 8 8 8 10 10 11 12 14 17 18 18 17 18 19 21 23 23 24 25 27 30 32 34 36 38 39 40 40 41 41 42 42 38 35 36 35 29 25 26
35 34 35 35 36 35 34 33 32 31 30 29 28 27 26 25 24 24 25 25 26 24 23 22 20 18 17 15 14 14 14 15 14 12 12 10 8 7 6 5 5 5 4 5 5 6 8 8 8 9 10 11 11 13 15 17 17 16 16 18 20 21 21 22 23 25 28 31 34 36 37 39 40 41 42 43 44 43 41 38 37 35 31 30 33
32 32 32 34 34 34 35 35 31 28 28 29 29 28 26 25 25 26 26 26 26 24 23 22 20 18 17 15 14 13 13 13 13 12 11 10 8 7 6 6 6 5 3 3 4 5 7 8 8 9 10 11 12 12 14 16 16 15 15 15 16 17 19 21 22 23 26 29 32 35 37 38 40 41 42 43 44 43 42 40 38 36 33 31 33
31 32 33 33 33 33 34 34 32 29 28 29 30 29 27 26 25 25 26 26 26 25 23 22 21 19 17 15 14 13 12 12 12 11 10 9 8 7 7 7 7 4 2 2 3 3 5 7 8 8 9 11 12 12 13 15 15 15 14 14 14 16 18 20 21 23 25 28 31 34 36 37 39 39 41 42 43 43 42 40 39 36 34 32 31
32 33 33 33 33 34 33 32 32 32 31 30 30 29 28 27 25 25 27 27 26 25 24 22 21 19 17 15 13 12 11 10 9 9 9 8 8 8 8 8 7 4 2 2 2 3 4 5 7 7 8 10 12 12 13 14 14 14 14 14 15 16 18 20 22 23 25 28 31 33 34 35 36 37 38 39 40 41 40 39 39 38 36 34 33
33 33 34 33 33 33 32 32 32 33 33 31 30 29 29 28 26 26 27 28 27 25 23 21 21 19 17 15 13 11 10 9 8 7 7 7 8 8 9 9 6 3 1 1 1 2 3 4 5 6 8 9 11 12 12 13 14 14 14 14 15 17 18 21 23 24 26 28 30 31 32 33 34 35 36 37 38 40 41 40 40 40 39 36 35
34 33 33 33 33 33 33 33 33 34 33 32 31 30 30 29 28 28 29 28 27 25 23 21 20 19 17 15 13 11 9 8 7 7 7 7 8 8 9 8 6 3 1 1 1 1 2 3 4 5 7 9 10 11 12 12 14 15 14 14 16 17 19 21 23 24 26 28 29 30 30 31 32 32 34 36 38 40 43 43 42 42 42 40 39
34 33 33 33 33 34 33 33 33 33 33 32 30 30 31 30 30 31 30 28 26 25 24 22 20 18 16 14 12 11 9 8 8 8 7 8 8 9 9 8 6 4 2 1 2 2 2 3 3 4 7 9 10 11 12 13 14 15 15 15 16 17 18 20 22 24 26 26 27 28 29 29 30 31 32 36 38 39 40 41 41 41 40 39 39
34 33 34 33 33 34 34 33 34 34 33 32 30 30 30 32 33 33 30 28 27 25 24 23 22 20 17 15 13 11 9 8 9 10 9 9 10 10 9 8 7 5 4 3 3 3 1 1 3 4 6 8 9 10 11 12 14 16 17 17 16 16 17 18 20 21 23 24 25 26 26 27 29 30 32 34 35 36 37 38 39 39 38 37 37
34 34 34 34 34 34 35 34 34 34 33 32 31 31 32 33 33 32 30 28 27 27 25 24 22 20 18 16 14 12 9 9 10 11 11 11 11 11 10 8 8 7 5 4 4 3 2 0 2 4 5 7 8 10 11 12 14 16 18 19 18 17 17 17 19 20 21 22 24 25 26 27 28 30 31 32 33 34 35 36 36 37 37 36 34
34 34 33 34 33 33 34 34 35 34 33 33 32 32 32 31 29 28 27 25 24 24 23 23 21 19 17 16 14 12 10 9 10 11 12 12 12 12 10 9 8 7 6 4 4 3 2 1 2 4 6 7 9 10 12 12 13 14 17 19 20 20 19 19 20 21 21 22 23 25 26 27 28 29 30 31 31 32 32 33 34 35 36 35 32
33 33 33 33 33 33 33 34 34 34 33 33 32 31 30 28 27 26 25 24 22 21 20 18 17 17 17 16 13 9 6 6 9 12 13 12 13 12 11 9 8 7 5 4 4 4 3 2 3 4 7 8 9 10 12 13 13 14 15 17 19 20 21 20 20 19 20 21 22 24 25 27 27 28 29 30 30 30 30 31 32 33 34 33 31
31 31 32 33 33 34 34 33 33 33 33 33 32 31 29 27 26 25 25 24 22 21 20 18 16 17 17 15 13 10 6 6 10 13 13 13 14 13 11 9 8 7 6 5 5 5 4 3 3 4 6 7 8 9 10 12 13 14 15 16 17 19 20 21 21 20 19 20 21 22 24 26 26 26 27 29 29 30 30 30 30 31 31 30 29
32 31 31 32 33 34 34 34 33 32 32 31 31 31 29 26 24 23 24 24 23 21 21 20 19 19 18 16 13 11 9 8 10 13 14 15 15 14 11 9 8 7 7 6 6 6 5 4 4 4 5 7 8 9 10 11 12 13 14 15 16 17 18 19 20 20 20 19 19 20 22 24 25 25 25 26 28 29 30 31 31 30 30 29 29
33 32 31 31 33 34 34 34 33 33 32 31 31 30 30 27 24 21 21 21 22 21 21 20 20 20 20 18 14 11 10 9 11 13 15 16 15 13 11 9 8 8 8 8 7 5 6 6 6 5 5 6 8 9 10 11 12 12 13 14 15 16 16 17 18 19 20 19 19 19 20 22 23 24 24 25 26 27 28 30 30 30 29 29 28
32 32 32 33 33 33 34 34 34 33 32 32 31 29 28 27 25 22 19 18 18 18 18 18 19 20 20 19 16 13 12 12 13 15 16 17 16 14 11 9 8 8 8 9 8 6 6 7 7 6 6 6 8 9 10 12 12 12 12 12 13 14 15 16 17 17 19 19 19 19 20 20 21 22 23 23 24 25 26 27 28 29 29 29 28
29 31 33 34 34 33 33 34 34 33 32 31 30 28 27 25 24 23 22 21 20 19 18 18 19 20 20 19 17 15 14 14 15 16 17 17 16 14 12 10 10 8 8 9 10 8 7 7 7 7 7 8 8 9 11 12 12 13 13 13 13 14 14 15 16 17 17 18 19 19 20 20 21 21 21 21 22 23 24 25 26 26 27 28 27
28 29 31 33 34 34 34 34 34 34 33 31 29 28 26 25 24 25 25 24 23 21 21 20 19 19 19 18 17 16 16 16 16 16 17 18 17 15 14 12 11 10 9 10 10 10 9 9 9 8 8 9 9 10 11 12 12 13 13 14 14 15 15 15 15 16 16 17 18 18 19 19 20 21 21 21 21 21 21 22 23 23 25 25 25
28 29 30 30 32 33 33 33 33 33 32 30 28 27 26 26 26 26 25 24 23 22 21 20 20 19 19 19 18 17 17 17 16 16 17 17 17 17 16 14 12 12 11 11 11 11 11 11 10 10 10 10 10 10 11 11 12 13 14 14 15 15 16 16 16 16 16 16 17 17 18 18 19 19 20 21 21 20 20 20 20 21 22 23 23
27 29 31 31 31 32 32 31 30 30 29 28 28 28 28 28 28 26 25 24 23 22 21 20 21 21 20 20 19 18 17 17 17 17 18 18 18 18 17 15 14 14 14 12 11 12 13 13 12 12 12 12 12 12 12 12 12 13 14 14 15 16 16 16 17 17 17 18 17 17 18 18 18 18 19 19 20 20 20 19 19 19 20 21 22
26 28 31 32 32 32 32 31 30 29 29 29 29 29 29 29 28 26 25 24 23 23 22 21 21 21 20 19 18 18 18 18 18 18 18 18 17 17 17 17 17 16 16 15 13 13 14 14 14 13 13 14 14 14 14 13 13 13 14 14 15 16 16 17 18 18 19 20 20 19 20 19 19 19 19 19 19 20 20 20 19 18 19 20 21
26 28 30 31 31 30 31 31 30 30 30 30 30 30 29 29 28 27 26 25 24 23 22 22 21 21 19 18 18 19 19 19 19 18 18 17 17 17 17 18 18 17 17 16 14 14 15 15 15 15 16 16 16 16 16 15 15 14 14 14 16 17 17 18 19 19 20 21 21 21 21 21 20 20 20 20 19 19 20 20 20 19 18 18 19
25 26 28 29 29 29 29 30 30 30 31 31 31 30 29 28 27 27 26 26 25 24 23 22 21 20 18 18 18 19 19 19 18 18 18 17 17 17 18 19 19 19 18 17 16 16 16 17 17 18 18 19 18 18 18 18 18 17 16 15 16 17 19 19 20 20 20 21 21 22 22 22 21 21 21 21 21 20 20 20 20 20 20 19 19
25 26 28 28 29 29 30 30 30 30 31 31 31 31 30 28 27 26 26 25 24 24 24 23 22 19 18 18 19 19 20 20 20 19 19 18 17 17 17 18 18 18 18 18 17 17 17 18 18 19 20 20 20 21 21 21 21 20 20 19 18 19 20 21 22 22 21 21 21 21 22 22 22 22 22 22 21 21 22 21 21 21 21 20 20
26 27 28 29 29 30 30 30 30 31 31 31 31 30 28 27 26 25 25 25 24 24 24 24 22 20 19 19 20 21 22 23 23 23 22 20 19 18 17 17 17 17 16 17 18 18 18 18 19 19 20 21 22 23 23 24 24 24 23 23 23 22 22 23 23 24 24 22 21 21 22 22 23 23 23 22 22 22 23 23 23 22 22 22 21
26 27 29 30 31 30 29 29 29 30 31 30 29 28 27 26 26 26 25 25 25 24 24 23 22 21 20 21 21 22 22 23 24 25 24 22 21 20 18 17 17 16 15 16 16 18 19 19 20 21 21 22 23 24 25 25 26 26 27 27 27 27 27 27 27 27 27 27 25 24 23 23 23 23 24 24 23 23 23 23 24 24 24 24 23
27 29 30 31 30 29 28 28 28 29 29 27 26 26 26 26 26 26 26 25 25 24 24 23 22 21 20 20 20 21 21 20 21 22 22 21 20 19 19 18 17 16 16 16 16 17 19 20 21 22 23 23 24 25 25 26 26 27 28 29 30 30 31 30 30 30 31 31 31 30 28 26 25 25 25 25 25 25 25 24 24 24 25 25 25
28 29 30 29 28 28 28 28 28 27 26 25 26 26 26 26 26 26 26 25 25 24 23 22 21 20 19 19 20 20 20 19 18 18 18 18 18 19 18 18 18 17 17 18 18 19 21 22 23 24 25 25 26 26 26 27 27 28 29 30 30 31 31 31 31 31 32 32 33 32 31 30 29 28 27 27 27 27 27 27 26 26 26 26 26
28 30 30 30 30 29 28 28 27 26 25 25 25 26 26 26 27 26 25 25 25 24 24 23 21 19 18 18 19 19 20 19 18 17 17 17 17 18 18 19 20 20 20 20 21 22 23 23 24 25 26 27 27 28 28 27 27 27 27 27 27 27 27 27 28 29 29 29 30 30 30 30 30 29 29 29 29 29 30 29 29 28 28 28 27
28 29 30 29 28 28 28 27 27 26 26 25 25 25 25 25 25 24 24 23 23 24 24 24 22 19 17 17 17 18 19 19 19 19 18 18 18 19 20 21 21 21 21 21 21 22 23 23 24 24 25 26 26 26 25 24 23 22 24 25 26 25 25 24 24 24 24 25 26 26 27 29 30 30 29 29 29 30 31 32 32 32 31 30 30
24 26 25 24 23 23 24 25 27 27 27 26 25 25 24 23 22 21 21 20 20 20 21 21 21 19 18 17 17 18 19 19 20 20 20 21 21 21 21 21 20 20 21 21 21 22 22 22 22 22 23 24 24 23 22 21 20 21 22 24 25 25 24 23 23 23 23 24 25 25 26 27 29 30 30 30 29 29 30 31 32 33 33 33 33
19 21 21 21 21 20 20 23 25 26 26 25 26 26 25 23 22 21 19 18 17 17 18 19 19 19 19 19 19 18 19 19 20 20 20 20 21 21 21 21 21 21 22 22 23 24 23 22 22 23 23 23 22 21 21 21 21 21 22 23 24 25 26 25 24 24 25 26 26 27 27 28 28 29 30 31 30 30 30 30 31 32 33 34 34
17 18 18 20 20 20 20 21 23 24 24 24 24 24 23 21 21 20 19 18 18 18 18 19 19 19 19 19 18 18 19 20 20 21 21 21 22 22 23 22 22 21 22 22 23 22 22 22 22 23 22 22 21 21 21 21 21 22 22 23 24 25 25 25 24 24 24 25 25 26 26 27 28 28 29 30 30 30 30 30 30 32 33 34 34
Wind_Direction
163 163 163 164 162 160 160 159 158 156 154 155 155 153 151 148 146 144 143 142 142 140 135 132 129 125 121 117 112 108 105 103 103 105 105 101 94 91 90 89 86 84 83 81 80 79 78 75 71 67 64 61 58 55 51 48 44 39 32 22 15 12 358 339 322 315 327 335 334 333 338 338 336 338 338 335 336 336 335 334 334 333 331 329 328
162 161 160 161 160 159 158 157 157 155 155 155 154 152 150 148 147 145 142 141 142 141 137 133 130 127 122 116 112 109 107 106 107 109 108 101 95 93 92 90 88 86 85 83 81 79 76 72 68 63 58 55 51 46 41 37 33 27 23 16 7 5 0 342 326 317 323 332 336 336 339 339 336 337 337 334 333 333 332 333 333 332 331 329 326
161 159 158 158 158 157 157 156 156 156 155 154 152 151 149 148 149 147 143 141 142 142 139 135 132 128 122 117 115 112 109 109 110 110 107 102 98 95 93 91 90 88 86 84 80 76 71 65 60 55 49 46 42 37 32 27 23 19 15 12 4 360 359 349 335 324 320 326 332 334 336 338 336 335 336 334 332 331 330 330 331 330 329 328 325
160 159 158 157 157 158 157 156 156 155 153 152 150 149 149 149 151 148 144 143 144 143 140 137 134 129 124 121 117 113 111 111 110 108 106 104 101 98 96 93 91 89 86 82 76 70 65 60 54 48 43 39 34 30 27 23 19 16 12 9 5 360 358 354 344 332 321 320 327 330 332 333 333 335 336 334 332 331 330 330 331 330 328 327 325
161 161 159 157 157 157 156 156 155 154 152 151 150 150 150 151 151 148 146 146 145 143 141 138 136 131 126 123 118 114 112 111 109 107 107 107 104 102 100 97 93 89 84 79 73 66 60 54 48 43 37 33 31 27 25 24 21 17 14 11 7 3 360 356 349 339 327 319 322 328 332 332 332 335 338 337 333 332 331 332 331 329 328 327 326
162 161 160 157 155 155 155 156 156 154 153 152 151 152 152 152 151 149 149 148 146 144 141 139 137 132 128 125 119 114 110 107 106 107 109 110 108 105 103 99 94 89 83 76 69 62 56 50 43 38 33 28 27 27 26 26 24 21 18 15 10 6 2 358 352 344 334 326 324 327 332 334 334 335 339 340 335 332 332 331 331 330 330 329 327
162 161 159 156 155 155 156 157 157 156 154 153 152 152 153 153 152 150 150 150 147 144 142 140 137 134 130 126 120 113 108 104 102 104 108 109 109 108 104 100 94 87 80 73 66 59 53 48 43 38 34 29 25 26 27 25 25 23 20 17 13 7 2 358 353 347 340 334 331 330 332 334 334 334 337 339 336 335 335 331 329 330 330 328 326
160 158 158 156 156 156 157 158 157 156 154 152 151 150 151 152 149 148 149 149 147 146 144 142 138 135 133 129 123 115 109 105 101 101 104 106 108 107 104 100 93 87 80 72 65 59 52 49 46 40 37 35 31 29 27 24 22 22 21 19 14 7 2 358 354 349 344 338 335 335 334 335 337 337 338 341 340 338 337 333 327 326 326 325 323
158 157 157 157 158 158 157 156 156 155 153 151 149 148 148 147 145 146 147 147 147 146 145 143 140 137 134 132 127 120 114 110 106 101 100 101 103 103 101 98 93 87 80 73 65 59 53 49 46 43 40 38 36 33 29 25 21 20 20 18 13 7 4 1 357 351 347 341 338 339 338 337 340 340 340 342 340 334 334 333 328 324 324 321 320
158 158 158 159 160 159 157 155 154 154 152 150 148 146 145 145 144 145 145 146 146 145 145 144 142 139 136 135 132 126 122 119 115 108 101 98 99 100 98 95 92 88 80 73 65 57 52 47 44 42 39 37 35 32 28 25 22 22 21 19 15 11 7 4 0 355 350 344 341 341 340 339 341 341 338 338 336 332 332 333 329 327 327 323 322
159 160 160 160 160 159 157 155 154 154 152 150 148 145 145 145 145 144 144 144 144 145 145 144 142 141 139 138 136 132 130 129 125 119 109 101 97 98 98 95 93 89 80 71 62 54 49 46 43 40 36 33 31 28 25 22 22 24 25 25 23 19 14 8 3 358 354 348 344 343 342 338 339 340 338 336 336 333 333 334 332 330 330 329 325
160 160 160 160 161 160 158 155 154 153 152 150 148 146 146 147 147 146 145 145 145 145 145 143 143 143 143 141 140 138 138 138 134 129 122 110 99 95 96 96 94 89 79 67 56 49 45 44 43 40 35 32 28 23 20 19 21 26 27 28 28 26 22 17 9 4 358 351 346 345 344 340 338 341 340 337 335 333 334 336 336 333 331 329 324
160 160 159 160 160 159 158 156 153 152 152 151 148 147 148 149 150 149 147 146 146 145 144 143 143 145 146 145 143 142 142 144 141 137 133 123 106 95 94 96 95 86 73 60 50 43 42 42 42 39 35 31 26 21 17 17 21 26 28 28 27 26 26 23 19 14 6 358 350 347 348 345 340 341 343 340 336 335 337 339 339 337 331 326 321
161 159 159 160 160 159 158 156 153 153 153 151 149 149 149 150 152 153 151 150 149 146 145 145 144 146 148 146 146 146 145 147 147 144 143 136 115 100 98 99 94 82 67 55 45 41 41 42 41 37 33 29 24 19 17 18 21 23 25 26 25 24 24 22 21 19 13 8 359 353 354 353 347 345 348 347 343 340 339 339 338 335 328 323 321
160 159 160 161 160 159 158 156 155 154 153 152 150 149 149 149 152 155 155 154 152 149 148 147 146 147 149 149 147 147 147 150 154 152 148 143 126 106 103 103 93 78 65 51 42 42 46 46 42 36 33 29 22 18 16 17 19 21 22 24 22 22 23 21 20 18 15 13 8 2 2 1 357 355 354 353 350 347 344 340 337 332 326 325 327
160 161 161 160 160 159 158 157 156 156 155 153 152 150 148 149 152 155 156 155 154 152 150 150 148 147 148 150 147 143 143 149 158 159 153 146 136 118 108 104 92 77 63 49 44 49 51 48 44 38 33 29 22 17 17 16 18 20 21 21 20 19 21 21 22 21 18 17 15 12 10 8 5 4 1 359 357 353 349 346 343 338 332 331 335
161 161 160 160 160 160 161 160 159 158 158 156 154 152 150 149 151 156 157 155 155 155 153 151 151 149 148 148 144 139 140 146 154 159 158 152 145 133 118 107 94 78 60 49 50 57 57 51 46 39 33 29 21 17 17 17 17 19 19 18 18 17 16 17 20 21 21 20 20 19 16 13 11 9 7 5 2 359 354 350 349 347 341 337 338
161 162 163 164 162 161 162 162 161 162 162 160 157 155 152 150 152 155 156 155 155 156 155 152 151 152 151 147 143 140 140 144 152 157 159 158 155 147 133 118 106 87 64 60 61 63 64 57 47 39 34 29 22 17 18 19 18 18 16 15 16 17 14 13 13 16 19 20 20 20 18 16 13 11 9 8 7 6 1 355 354 353 347 340 335
166 170 172 170 167 166 165 165 165 166 165 164 161 158 154 151 151 152 153 154 153 154 155 153 151 152 154 152 150 147 142 143 149 154 154 156 160 157 149 142 132 110 78 74 73 67 67 62 50 41 34 27 22 17 18 20 20 19 16 13 14 15 13 11 11 11 14 16 17 17 17 16 15 13 11 10 11 11 6 0 0 359 352 345 342
173 174 172 169 169 170 170 168 168 168 168 168 165 162 157 153 151 150 150 150 150 151 154 154 151 152 156 158 158 158 155 152 152 155 156 158 162 166 171 171 151 123 85 77 79 70 66 62 53 45 34 27 23 18 17 20 22 20 17 16 15 12 10 10 11 12 13 15 17 17 15 16 16 14 12 12 12 12 9 6 6 4 359 354 352
172 169 168 168 169 170 172 170 169 171 174 173 169 165 162 157 154 151 149 148 147 147 149 151 149 148 152 158 160 162 166 165 162 164 167 169 174 184 192 178 155 132 88 74 79 71 65 59 53 45 35 27 22 18 17 20 21 20 20 19 16 10 7 9 11 14 15 16 18 18 16 15 15 14 13 12 12 11 10 10 9 7 6 4 359
169 167 168 169 169 171 172 171 171 176 180 177 171 167 165 163 158 154 151 149 147 146 146 146 146 145 147 152 155 155 161 167 166 167 173 178 185 195 192 172 157 142 107 88 84 76 67 57 50 43 34 26 22 18 17 17 18 20 20 17 12 9 9 11 12 14 17 18 19 19 16 14 13 12 12 12 11 11 11 11 11 11 13 14 10
169 168 169 170 171 173 174 174 174 177 180 179 174 171 169 167 164 159 156 152 149 147 148 147 148 148 149 151 153 153 155 161 165 168 175 182 187 188 180 169 161 151 130 114 104 85 71 58 50 42 30 24 21 17 16 16 17 18 17 14 12 10 10 12 14 16 18 19 19 18 16 14 11 10 11 11 10 11 12 13 13 14 18 20 18
170 169 170 172 173 174 176 178 178 178 179 179 177 174 172 171 169 165 161 157 154 153 154 155 155 154 154 155 157 159 161 163 165 168 174 182 184 179 173 169 166 165 158 148 141 97 72 59 50 40 27 21 20 18 17 18 19 18 16 14 13 12 13 14 15 17 19 19 18 16 16 15 13 11 11 11 12 13 15 17 17 18 20 21 21
170 170 171 173 174 175 176 179 179 179 179 180 179 177 176 175 173 169 166 162 161 160 162 164 164 162 162 163 163 166 171 175 176 175 178 185 185 177 172 172 176 189 197 184 186 141 78 60 47 35 25 20 20 21 22 24 24 22 20 18 16 16 17 17 17 18 18 18 16 15 16 18 18 16 16 16 17 17 17 18 19 20 21 21 22
170 170 172 174 175 176 176 177 178 178 179 181 183 183 182 179 175 172 170 169 167 167 169 171 172 171 171 171 171 176 182 187 190 190 188 189 188 181 177 180 189 199 207 207 205 186 110 66 41 26 23 22 22 25 27 29 28 27 26 25 22 20 20 20 19 18 18 17 16 16 17 18 20 21 21 21 20 19 18 17 16 17 18 18 19
170 171 173 174 175 176 176 175 176 176 178 182 185 185 184 180 176 174 175 176 175 175 176 178 180 181 180 180 182 187 191 193 195 196 194 190 186 183 183 188 194 199 204 205 202 197 170 69 32 19 19 22 24 27 28 28 28 28 29 28 26 24 24 23 22 21 19 18 17 17 17 17 18 20 23 23 21 20 19 18 17 15 16 17 18
171 173 174 174 175 176 176 176 176 177 179 182 183 182 180 179 179 180 182 182 182 183 185 186 188 189 188 188 191 194 199 202 196 194 194 189 184 185 188 191 195 199 201 201 199 196 189 50 16 11 11 14 18 21 24 24 25 27 27 27 28 26 24 23 24 24 21 18 17 16 16 17 18 19 21 23 22 20 19 20 19 17 17 19 19
173 173 174 174 174 175 177 178 178 179 180 182 183 183 183 185 187 188 189 189 190 190 191 193 196 198 198 199 198 198 206 211 198 190 192 191 187 189 193 192 194 198 201 203 205 203 210 279 346 5 8 6 7 12 15 16 20 23 23 24 25 24 23 21 21 22 21 19 18 17 16 17 18 18 19 20 22 22 20 19 20 19 19 20 19
172 173 174 175 175 175 177 178 180 180 181 184 186 187 189 192 194 194 195 198 200 201 202 202 203 205 208 209 208 209 219 217 198 192 194 194 193 194 197 197 199 205 212 219 222 220 232 285 334 360 7 4 0 4 8 9 10 13 17 19 20 20 21 21 19 18 18 19 19 18 17 17 17 18 18 17 18 21 21 20 20 20 19 19 17
171 173 175 175 176 177 178 179 180 181 183 185 187 188 190 193 197 200 201 203 206 209 212 215 216 216 215 213 209 211 217 210 200 198 197 196 196 198 200 203 209 217 227 236 234 230 240 276 316 343 358 1 358 358 360 2 3 5 7 11 13 15 17 17 17 14 12 14 17 19 19 19 18 18 18 17 17 18 20 20 20 19 19 18 16
172 175 177 177 177 179 179 180 180 181 182 185 187 188 189 191 197 202 205 207 210 213 217 223 225 223 219 214 211 214 219 213 203 201 199 198 198 200 202 209 222 233 240 243 241 239 245 261 287 317 342 353 356 356 354 353 355 358 359 1 5 8 10 11 13 12 10 10 13 15 17 19 19 18 18 18 17 17 18 18 17 17 17 16 15
175 175 176 177 178 180 181 181 182 183 183 184 185 188 189 192 195 198 203 208 213 217 221 226 226 220 213 211 214 224 233 223 207 202 201 199 199 201 206 219 238 245 242 240 240 243 248 256 270 295 322 337 346 351 350 348 347 349 352 355 357 360 2 3 5 8 10 10 10 11 14 17 18 18 18 17 17 17 18 17 16 15 14 12 12
179 178 179 179 179 181 183 183 184 185 185 185 187 189 192 194 195 194 194 195 198 203 207 210 211 209 207 208 213 221 224 216 207 203 201 199 200 205 214 230 243 243 236 235 237 244 254 259 265 281 303 321 331 337 341 343 342 341 342 345 349 352 355 356 358 2 5 7 7 9 10 12 14 16 17 17 16 16 17 17 17 15 13 10 8
182 182 182 183 183 184 185 186 186 187 187 188 190 191 192 194 195 194 190 183 179 182 186 189 194 199 203 209 214 214 210 207 206 206 205 204 208 214 222 234 239 237 234 234 235 241 255 263 266 274 292 307 318 325 330 335 337 338 336 337 340 343 345 347 350 353 355 357 360 2 5 7 9 11 13 15 16 15 15 15 16 16 15 13 10
184 183 183 185 186 187 187 188 189 190 191 191 192 192 192 193 193 191 188 185 183 185 188 190 193 197 203 208 211 208 207 208 209 210 211 213 216 220 227 234 236 234 235 236 236 242 253 263 267 271 283 297 307 316 323 327 330 334 334 332 332 333 335 336 338 341 345 347 349 352 354 358 1 3 6 9 13 15 14 12 13 15 16 15 13
185 184 184 187 188 188 188 189 191 192 192 191 191 191 192 193 191 190 190 191 194 196 197 198 199 201 205 207 208 208 210 212 213 214 217 219 221 223 228 234 236 236 238 239 241 246 253 260 266 268 275 289 299 306 312 318 324 328 329 329 327 326 328 329 329 329 332 336 339 341 343 346 350 354 358 0 4 8 10 10 9 10 13 14 14
190 191 190 190 189 188 188 189 190 191 191 191 191 192 192 192 193 195 197 200 203 206 207 206 206 208 209 209 208 209 211 213 216 220 222 223 224 225 227 232 236 240 243 244 246 250 254 258 263 265 271 282 291 295 301 309 317 320 322 324 324 323 324 325 325 325 325 326 330 332 334 336 339 343 347 352 355 358 2 5 5 5 7 10 12
194 195 193 192 191 189 188 189 189 190 190 190 192 193 194 193 195 199 203 206 209 211 211 210 209 211 212 209 206 208 210 213 217 221 222 224 224 224 226 232 237 241 245 247 249 252 255 258 262 265 270 277 283 287 292 299 306 313 316 317 318 320 321 321 323 324 324 325 326 327 328 329 331 332 335 341 346 349 352 356 359 0 1 4 6
193 193 191 191 190 190 190 190 189 190 191 193 194 195 196 198 202 205 207 209 211 212 211 209 209 209 207 205 205 207 209 212 216 219 220 222 223 224 227 232 238 243 248 252 255 255 256 259 263 266 269 274 280 285 289 292 297 303 308 310 310 312 315 317 319 321 322 323 324 325 325 325 325 325 327 329 333 339 343 346 350 352 354 355 357
191 190 190 191 191 190 190 190 191 193 196 198 199 200 201 204 208 210 210 211 212 211 208 207 207 206 204 203 206 210 214 218 223 226 227 228 229 231 235 240 245 250 254 258 260 259 259 262 265 268 270 274 279 284 287 289 291 294 298 302 304 305 308 311 314 316 318 320 322 322 322 323 322 321 321 323 324 327 331 335 340 343 345 348 350
191 190 189 190 191 190 190 192 195 198 200 202 204 205 207 209 210 211 211 211 211 209 206 206 210 213 213 212 214 218 224 231 236 239 241 241 242 244 248 252 256 259 261 261 260 260 261 264 268 270 273 276 280 283 285 287 289 290 292 295 297 298 300 304 307 310 312 315 317 318 318 319 320 319 318 318 318 318 321 324 329 333 336 339 342
192 192 191 191 192 193 193 196 199 201 203 206 207 208 210 210 210 209 210 210 209 209 209 212 217 222 224 226 227 229 232 238 243 246 249 250 250 253 257 261 265 268 268 264 259 258 262 266 269 272 275 278 281 284 285 287 289 289 290 291 292 293 295 297 302 306 309 310 311 313 314 316 318 318 317 317 316 314 315 317 320 323 327 330 333
194 194 193 193 193 194 196 199 203 206 209 211 212 213 213 212 210 210 211 212 213 215 218 223 228 232 234 237 239 239 240 242 245 248 251 253 254 256 260 265 270 273 271 266 260 258 262 267 270 274 278 281 283 285 286 288 289 289 290 291 291 292 293 296 300 305 308 307 306 307 308 311 312 312 313 314 313 312 311 313 314 315 318 321 323
199 197 195 193 192 194 198 203 207 211 213 214 214 214 214 214 213 213 215 218 223 227 231 235 239 240 241 243 243 243 243 245 247 250 252 254 256 258 261 265 270 272 271 268 264 263 265 268 271 275 279 282 285 288 290 292 294 294 293 293 292 293 296 299 302 305 306 306 305 306 306 305 305 306 307 308 309 308 307 307 308 308 310 312 314
199 196 194 193 194 197 201 205 208 212 214 215 215 215 215 216 217 218 222 228 233 237 241 243 244 242 242 243 243 242 244 248 251 254 255 255 258 261 264 267 270 272 272 270 269 268 269 271 273 276 279 283 286 289 291 294 297 299 299 298 298 298 301 304 305 304 305 306 307 307 306 304 302 302 302 302 303 303 302 302 303 302 303 304 305
201 196 195 196 198 200 203 207 210 213 215 216 216 217 219 221 223 225 230 235 239 242 244 244 242 241 242 243 243 244 247 252 257 261 263 263 264 266 269 272 275 276 277 276 275 275 275 277 279 281 283 285 287 289 292 295 298 299 300 301 302 304 307 309 309 307 307 307 306 307 307 306 304 302 301 300 299 298 298 298 299 299 299 300 300
201 197 195 197 198 200 204 209 213 216 217 219 221 223 224 225 226 227 230 234 237 241 242 240 240 243 246 247 246 248 252 258 264 269 271 271 270 272 275 278 280 281 281 281 280 280 281 282 283 284 285 285 288 292 295 296 296 296 296 297 299 301 303 305 305 304 303 303 303 304 305 306 305 304 302 300 299 297 296 296 297 297 297 297 297
199 196 197 199 200 202 206 212 216 219 220 221 222 221 219 218 219 221 224 230 236 241 243 243 245 248 251 251 251 253 257 263 267 270 271 271 272 273 276 278 280 281 282 281 281 283 285 285 284 282 282 284 288 292 293 292 291 290 290 291 292 293 294 295 295 296 295 295 296 297 299 300 301 302 303 302 301 298 296 294 294 295 295 295 295
201 204 205 206 208 211 214 216 218 219 218 217 218 218 218 219 219 219 223 231 240 245 246 246 247 249 251 252 253 255 259 263 267 270 271 272 273 274 277 280 283 285 285 285 286 287 286 281 277 277 279 283 287 288 288 287 287 286 285 284 285 286 287 288 290 291 291 291 292 292 293 293 294 295 296 298 299 297 295 294 293 293 292 291 291
214 221 221 217 217 219 220 219 219 217 214 214 218 223 227 230 230 228 231 237 243 245 245 245 248 252 256 259 262 264 265 267 270 273 274 275 276 279 283 286 287 287 286 285 284 281 277 273 273 277 282 285 286 286 286 285 284 283 282 282 282 284 286 289 291 292 293 294 296 297 297 296 296 294 292 293 295 296 296 295 294 292 290 289 289
Height
808 810 812 814 815 817 819 822 824 826 828 829 831 832 833 835 836 838 839 840 840 840 840 840 840 840 840 841 842 842 843 844 845 845 846 846 847 847 847 847 848 849 850 850 850 850 849 849 848 848 848 847 846 846 845 844 843 842 841 840 839 838 836 835 833 827 821 818 815 810 806 802 797 793 789 784 779 776 773 770 768 765 761 758 754
808 810 812 814 816 818 820 823 825 827 828 830 831 832 834 835 837 838 839 839 840 840 840 840 841 841 841 842 844 844 845 846 847 847 847 847 848 849 849 849 850 851 852 852 852 852 851 850 850 850 849 848 848 847 846 845 844 843 842 840 838 837 836 834 832 828 821 816 812 809 805 802 797 793 790 785 779 775 771 768 765 763 760 757 753
808 810 812 814 817 819 821 824 826 827 829 830 832 833 834 836 837 838 838 839 840 840 841 841 842 842 843 844 846 847 847 848 848 848 848 849 849 850 851 852 852 853 853 854 854 853 853 852 851 851 851 849 849 848 847 846 845 843 842 840 839 837 835 834 831 828 823 817 813 809 805 802 798 793 790 786 781 776 771 766 763 761 758 755 751
809 810 813 815 818 820 822 825 827 828 830 831 832 834 835 837 838 838 839 839 840 841 842 843 843 844 845 846 848 849 849 849 849 850 850 850 851 852 853 854 854 855 855 855 856 855 854 853 853 852 852 851 849 849 848 846 845 844 842 840 839 837 835 833 831 829 825 819 814 810 806 803 799 794 790 785 780 776 771 766 762 758 755 752 749
809 811 814 816 818 821 823 825 827 829 831 832 833 835 836 837 838 838 839 839 841 842 843 844 845 846 847 848 849 850 850 850 850 850 852 852 853 854 855 856 856 857 857 857 857 857 856 855 854 853 852 851 850 849 848 847 845 844 842 840 839 837 835 833 831 828 825 821 815 810 807 803 799 795 790 785 778 773 768 765 761 756 751 747 744
810 812 815 817 819 822 824 826 828 829 831 833 834 836 837 838 839 839 839 840 841 843 844 845 847 848 849 850 850 851 851 851 851 852 853 854 855 856 856 857 858 858 859 859 859 858 857 856 855 854 853 852 851 850 848 847 845 844 842 841 839 837 835 832 830 827 825 821 816 811 806 802 798 793 790 786 780 773 766 760 757 754 750 744 739
811 813 815 817 820 822 824 826 828 830 832 833 835 837 838 839 839 839 840 841 842 844 845 846 848 849 850 851 851 852 851 852 853 853 855 856 856 857 858 859 860 860 860 860 860 859 858 857 856 855 854 853 851 850 849 847 846 844 843 841 839 837 835 832 830 827 824 821 817 812 807 803 798 793 789 785 781 776 770 761 752 748 747 744 738
811 814 816 818 821 823 825 827 828 830 832 834 836 838 839 839 839 840 841 842 843 844 845 847 848 850 851 852 852 853 853 853 854 855 856 857 858 859 860 860 861 861 862 862 861 861 860 859 857 856 855 854 852 851 849 848 846 845 843 842 840 838 835 832 830 827 824 820 817 813 808 803 798 793 788 783 778 774 771 766 757 749 744 741 738
812 814 817 819 821 824 825 827 829 831 833 835 837 838 839 839 840 840 841 842 844 845 846 847 849 850 851 852 853 854 854 855 856 857 858 859 860 860 861 862 862 863 863 863 862 862 861 860 858 857 856 855 854 852 851 849 847 846 844 842 840 838 835 833 830 827 824 820 816 812 808 803 798 793 787 783 780 775 770 767 761 754 746 740 736
812 814 817 819 821 824 826 827 829 831 833 835 837 838 839 840 840 841 842 843 844 846 847 848 849 850 851 853 854 855 856 857 858 859 860 860 861 862 862 863 864 864 864 864 863 862 862 861 859 858 857 856 854 853 852 851 849 847 845 843 841 839 836 833 830 827 824 821 816 812 808 804 799 795 790 786 783 778 772 767 760 753 747 739 732
812 814 816 819 821 823 825 827 829 831 833 835 836 838 839 840 841 842 843 844 845 846 847 849 850 851 852 853 855 856 857 858 859 860 861 862 863 863 864 864 864 865 865 864 864 863 862 861 860 859 857 856 855 854 853 851 850 848 846 844 842 840 837 834 831 828 825 821 818 814 810 806 801 797 793 788 783 779 773 768 762 755 750 743 734
812 814 817 819 821 823 825 827 829 831 833 835 836 837 839 840 841 842 843 844 846 847 848 849 850 852 853 854 856 857 858 859 860 861 862 863 864 864 865 865 865 865 865 865 865 864 863 862 860 859 858 857 856 854 853 852 850 848 847 845 843 841 838 835 832 829 826 823 819 815 811 808 803 798 794 788 783 779 774 769 765 759 753 749 741
812 814 817 819 821 823 825 827 829 831 833 835 836 837 839 840 842 843 844 845 846 847 849 850 851 853 854 855 856 858 859 860 861 862 863 864 865 865 865 866 866 866 866 866 865 864 863 862 860 859 858 857 856 855 853 852 850 848 847 845 843 841 838 836 833 830 827 824 821 817 813 809 804 800 795 790 785 779 773 769 765 761 756 750 744
812 814 816 819 821 823 825 827 829 831 833 835 836 838 839 841 842 843 844 846 847 848 849 851 852 854 855 856 857 859 860 861 862 863 864 865 865 866 866 866 866 867 867 866 865 864 863 862 861 860 859 858 857 855 854 852 850 848 847 845 843 840 838 836 833 831 828 825 822 818 814 811 807 801 797 792 787 781 775 770 766 762 757 750 745
811 813 815 818 820 822 824 826 829 831 833 835 837 838 840 841 842 844 845 846 848 849 850 851 853 854 856 857 858 859 860 861 862 863 864 865 866 866 866 867 867 867 867 867 866 865 864 863 862 861 860 859 858 856 854 853 851 849 847 845 843 840 838 836 833 831 828 825 822 819 815 811 807 803 797 793 788 783 778 773 768 763 756 749 744
810 812 814 817 819 822 824 827 830 832 833 835 837 839 840 841 843 844 846 847 849 850 851 853 854 855 857 858 859 859 860 861 863 864 865 865 866 866 867 867 867 868 867 867 866 865 865 864 863 862 861 860 858 857 855 853 851 849 847 845 843 841 839 837 835 832 829 826 823 819 816 812 807 803 798 793 789 784 778 772 767 761 754 747 741
809 811 814 817 819 821 824 827 830 832 834 836 837 839 840 841 843 844 845 847 849 851 852 854 855 856 857 858 859 860 861 862 863 864 865 865 866 866 867 867 868 868 868 867 867 866 865 864 863 863 861 860 859 857 855 853 851 849 847 845 843 841 839 837 835 832 830 826 823 819 815 811 807 802 798 793 788 783 777 771 765 760 753 747 741
808 811 815 817 819 821 824 827 830 833 834 836 837 839 840 841 843 845 846 847 849 851 853 854 856 857 858 859 860 860 861 862 863 864 865 865 866 866 867 868 868 869 868 868 867 866 866 865 864 863 862 860 859 858 856 854 851 849 847 845 843 841 839 837 834 832 829 826 822 818 814 810 805 801 797 792 788 783 777 772 767 761 756 751 746
807 809 813 815 818 821 824 827 830 832 835 837 838 839 840 842 843 845 847 848 850 852 853 855 856 857 858 859 860 861 862 863 864 864 865 865 866 866 867 868 869 869 869 868 868 867 866 865 865 864 862 861 860 858 856 854 852 850 848 846 844 842 839 837 834 831 828 825 821 817 813 809 805 801 796 792 788 783 779 775 770 765 760 755 749
805 808 811 814 817 820 822 826 830 833 835 837 839 840 841 843 844 846 847 849 850 852 854 855 856 858 859 860 861 862 862 863 864 864 865 865 866 867 868 869 869 869 869 869 868 867 867 866 865 864 863 861 860 858 857 854 853 851 849 847 845 842 840 838 836 832 829 825 822 818 814 810 805 801 797 792 788 784 780 777 773 768 764 758 753
805 808 812 815 818 820 822 824 829 835 837 838 839 841 842 843 845 846 848 849 850 852 854 855 857 858 859 860 861 862 863 863 864 864 865 865 866 867 868 869 869 869 869 869 868 868 867 866 865 864 863 862 860 858 857 855 853 852 850 848 846 844 842 839 836 833 830 826 823 818 814 810 806 802 797 793 789 785 781 778 774 771 767 762 756
805 808 812 815 818 821 823 823 826 833 838 838 839 841 843 844 846 847 848 849 851 853 854 856 857 858 860 861 861 862 863 863 864 864 865 865 866 867 868 869 869 869 869 869 869 868 867 866 865 864 863 862 860 859 857 856 854 852 850 849 847 845 842 839 836 833 830 827 823 819 815 811 807 803 799 795 791 788 784 780 777 773 769 766 762
805 808 812 815 817 820 823 824 825 829 835 838 839 840 843 845 846 847 848 849 851 853 854 856 857 858 859 861 861 862 863 863 864 864 865 866 867 867 868 869 869 870 869 869 869 868 867 867 866 865 863 862 860 859 857 856 854 852 851 849 847 845 842 840 836 833 830 827 823 820 816 812 809 805 801 798 794 791 787 783 779 775 771 768 765
804 808 810 814 817 819 822 824 825 828 832 836 838 840 843 845 846 847 848 850 851 853 854 856 857 858 859 860 861 862 863 863 864 864 865 866 867 867 868 869 869 869 869 869 869 868 867 867 866 865 864 862 861 859 858 856 855 853 851 849 847 845 842 839 836 833 830 827 824 821 818 815 811 808 804 801 798 794 790 786 781 778 774 770 767
803 807 810 813 816 819 821 824 826 828 831 835 837 839 842 844 845 847 848 849 851 852 854 856 857 858 859 860 861 862 862 863 863 864 865 866 867 867 868 869 869 869 869 869 869 868 867 867 866 865 864 862 861 860 858 857 855 853 851 849 847 845 842 840 837 834 831 828 825 823 820 817 814 811 807 804 800 795 790 786 783 779 775 771 768
803 806 809 812 815 818 820 824 826 828 830 834 836 839 841 842 844 846 848 849 850 852 854 855 857 858 859 860 861 862 862 862 863 864 865 866 866 867 868 868 869 869 869 869 868 868 867 867 866 865 863 862 861 860 858 857 856 854 852 850 848 845 843 840 838 835 832 830 827 825 822 819 816 813 810 805 801 797 793 789 785 781 777 773 769
802 805 808 812 815 817 819 822 825 827 830 833 836 838 840 842 843 845 846 848 850 851 853 854 856 857 858 859 860 861 862 862 862 863 864 865 866 867 867 868 868 869 869 868 868 868 867 866 865 864 863 862 861 860 859 858 856 854 852 850 848 846 844 842 839 837 834 832 829 827 824 821 818 814 811 807 803 799 796 792 788 784 781 777 772
801 805 808 811 814 816 819 821 824 826 829 832 835 837 839 841 842 844 845 847 848 850 852 853 855 856 857 859 860 861 861 861 861 862 863 864 865 866 867 867 868 868 868 868 868 867 867 866 865 864 863 862 861 860 859 858 856 854 852 851 849 847 845 843 840 838 835 833 830 828 825 822 819 815 812 809 805 802 799 795 792 788 784 780 776
801 804 807 810 813 816 818 821 823 825 828 831 834 837 839 841 842 844 846 847 848 850 851 853 854 856 857 858 859 860 860 860 861 862 863 864 865 866 866 867 867 868 868 867 867 867 866 866 865 864 862 862 861 860 859 857 856 854 853 851 849 847 845 842 840 838 836 834 831 829 826 823 820 817 814 811 808 805 801 798 795 791 788 784 781
800 803 806 809 812 814 817 820 822 825 828 830 833 836 839 841 843 844 846 848 849 850 852 852 854 855 856 857 858 859 859 860 860 861 862 863 864 865 866 867 867 867 867 867 866 866 865 865 864 863 862 861 860 859 858 857 855 854 852 851 849 847 845 843 841 839 837 835 833 830 827 824 821 818 816 812 810 807 804 801 797 794 791 787 785
799 802 805 807 810 813 816 819 821 824 827 829 832 835 837 840 842 844 845 847 849 850 851 852 854 855 856 857 858 859 859 859 860 861 862 863 864 865 866 866 866 867 866 866 866 865 865 864 863 862 861 860 859 859 858 856 855 854 852 850 849 847 845 843 841 840 838 836 834 831 829 826 823 820 818 815 812 809 806 803 799 796 793 791 789
797 801 804 807 809 812 815 817 820 823 826 828 831 833 835 838 840 842 844 846 847 849 850 852 853 854 855 856 857 858 858 859 859 860 861 862 863 864 865 865 866 866 865 865 865 864 864 863 863 862 861 860 859 858 857 856 855 853 852 850 849 847 845 844 842 840 838 836 834 832 830 827 825 822 820 817 814 811 808 805 802 799 796 794 792
796 799 803 806 809 812 814 816 819 822 824 827 829 831 834 836 838 840 842 844 846 847 849 850 852 853 855 856 857 857 858 858 858 859 860 861 863 863 864 865 865 864 864 864 864 863 863 862 862 861 860 859 858 857 856 855 854 853 851 850 848 847 846 844 842 841 839 837 835 833 831 829 826 824 821 819 816 813 810 807 804 801 799 796 793
797 799 802 805 808 810 813 815 818 821 823 826 828 830 833 835 837 839 841 842 844 845 847 849 851 852 854 855 856 856 857 857 857 858 859 860 862 862 863 863 863 863 863 863 862 862 862 861 861 860 859 858 857 856 855 854 853 852 851 849 848 847 845 844 842 841 839 837 835 833 831 829 827 825 822 820 817 815 813 810 807 804 801 799 796
797 799 802 805 807 810 812 815 817 820 823 825 827 830 832 835 837 839 840 841 843 845 846 848 850 851 853 854 855 855 856 856 857 857 858 859 860 861 861 862 862 862 862 861 861 861 861 860 860 859 858 857 856 855 854 853 852 851 850 848 847 846 844 843 842 840 839 837 835 834 832 830 828 826 824 822 819 817 814 812 810 807 805 802 799
797 799 802 804 807 809 812 814 817 819 822 824 827 830 832 834 836 838 840 841 843 844 846 848 849 851 852 853 853 854 855 855 856 856 857 858 859 859 859 860 860 860 860 860 860 860 859 859 859 858 857 856 855 854 853 852 851 850 849 847 846 845 843 842 841 839 838 836 835 833 832 830 828 826 824 822 820 818 816 814 812 809 807 805 802
797 799 801 804 806 808 811 814 817 819 822 824 827 829 832 834 836 838 840 841 842 844 845 847 848 849 850 851 852 853 854 854 855 856 856 857 857 857 858 858 859 859 859 859 859 858 858 858 857 856 856 855 854 853 852 851 850 849 847 846 845 843 842 841 839 838 837 835 834 833 831 829 828 826 824 822 821 819 817 815 813 811 809 807 804
798 800 802 804 806 808 811 814 817 820 822 824 827 829 831 833 836 837 839 840 842 843 844 845 846 847 848 849 851 852 853 853 854 854 855 855 855 856 856 857 857 857 857 857 857 857 856 856 856 855 854 853 852 851 850 849 848 847 846 845 844 842 841 840 838 837 836 835 833 832 831 829 828 826 825 823 821 819 817 816 814 812 810 808 806
798 800 802 804 806 808 810 813 817 820 822 824 826 828 830 832 834 836 837 839 840 841 843 844 845 846 847 848 850 851 851 852 852 853 853 854 854 854 855 855 855 855 855 855 855 855 854 854 854 853 853 852 851 850 849 848 847 846 845 844 842 841 840 839 838 837 835 834 833 832 830 829 828 826 825 823 821 819 818 816 814 812 810 808 807
798 800 802 804 806 808 810 813 816 819 821 824 825 827 829 830 832 834 835 837 838 839 840 842 843 844 846 847 848 849 850 850 851 851 852 852 852 852 853 853 853 853 853 853 853 853 853 852 852 851 851 850 849 848 847 846 846 845 844 843 841 840 839 838 837 836 834 833 832 831 829 828 827 826 824 823 821 820 818 816 814 813 811 809 807
798 800 802 804 806 808 811 813 816 818 820 822 824 826 827 829 830 832 833 834 836 837 838 840 841 842 844 846 847 848 849 849 850 850 850 850 850 850 851 851 851 851 852 851 851 851 851 850 850 849 849 848 847 847 846 845 844 843 842 841 840 839 837 836 835 834 833 832 831 829 828 827 826 825 823 822 821 819 818 816 814 812 811 809 807
798 800 802 804 806 808 810 813 815 818 820 821 822 824 825 827 828 830 831 833 834 836 837 838 840 841 842 844 845 847 847 848 848 849 849 849 849 849 849 849 850 850 850 849 849 849 849 848 848 847 846 846 845 845 844 843 842 841 840 839 838 837 836 834 833 832 831 830 829 828 827 825 824 823 822 821 820 818 817 815 814 812 810 809 807
796 799 801 804 806 808 809 812 814 817 819 820 821 823 824 825 827 828 830 832 833 834 836 837 838 839 840 842 843 845 846 846 847 847 847 847 847 847 847 847 848 848 848 847 847 847 847 846 845 845 844 844 843 842 842 841 840 839 838 837 835 835 833 832 831 830 829 828 827 826 825 824 823 822 820 819 818 817 816 814 813 811 810 808 806
796 798 801 803 805 807 809 811 813 816 818 820 821 823 824 825 826 827 829 831 832 833 835 836 837 837 838 839 841 842 843 844 844 845 845 845 845 845 845 845 846 846 846 845 845 845 845 844 843 842 842 841 841 840 839 838 837 836 835 834 833 832 831 830 829 828 827 826 825 823 823 822 821 820 818 817 816 815 814 812 811 810 808 807 805
796 798 800 802 803 806 808 810 812 814 817 819 821 822 824 825 825 826 828 829 831 832 834 835 835 836 837 838 838 839 840 841 842 842 842 843 843 843 843 843 844 844 844 843 843 843 843 842 841 840 840 839 838 837 836 835 835 834 833 832 831 829 828 827 827 826 825 824 822 821 820 819 818 817 816 815 814 813 811 810 809 808 806 805 803
795 797 800 802 804 806 807 809 811 813 815 817 819 820 822 823 824 825 827 828 829 831 832 833 834 835 835 836 837 837 838 839 839 840 840 841 841 841 841 841 841 842 842 841 841 841 841 840 839 838 837 836 835 834 834 833 832 831 830 829 828 827 826 825 824 823 822 821 820 819 817 816 815 814 813 812 811 810 808 807 806 805 804 803 801
795 796 798 800 802 805 806 807 809 811 813 815 817 819 820 822 823 824 825 826 828 829 830 832 832 833 834 834 835 836 836 837 837 838 838 838 839 839 839 839 839 839 839 839 839 839 838 838 837 836 835 834 832 832 831 830 830 829 827 826 826 825 824 823 822 821 820 819 817 816 815 813 811 810 810 809 808 807 805 804 803 802 801 800 799
794 795 797 798 800 803 805 806 808 809 811 813 815 817 818 819 820 822 823 824 826 827 828 830 831 831 832 833 833 834 834 835 835 836 836 836 837 837 837 837 837 837 836 836 836 836 835 835 834 833 832 831 830 829 828 828 827 826 825 824 823 822 821 820 819 818 816 815 814 813 811 810 808 807 806 805 804 803 802 801 800 799 798 797 795
794 795 797 798 800 801 803 805 806 808 810 812 814 815 816 817 819 820 821 822 824 825 826 827 828 829 830 831 831 832 832 833 833 833 833 834 834 834 834 834 834 834 834 833 833 833 833 832 831 830 829 828 827 826 825 825 824 823 822 821 820 819 818 817 816 814 813 812 811 810 808 807 805 804 802 801 800 799 799 798 796 795 795 793 792
794 796 797 799 800 801 803 804 805 807 808 810 812 814 815 816 817 818 819 821 822 823 824 825 826 827 828 828 829 829 830 830 830 830 831 831 831 831 831 831 831 831 831 831 830 830 829 829 827 826 826 825 824 823 823 822 821 820 819 818 817 815 814 813 812 811 810 809 808 806 805 804 802 801 799 798 796 795 794 793 792 791 790 789 788
794 796 797 798 800 801 802 803 804 806 807 809 811 812 813 814 815 816 818 819 820 821 822 823 824 825 825 826 826 827 827 827 828 828 828 828 829 829 829 829 828 828 828 827 827 826 826 825 824 824 823 822 822 821 820 819 818 817 816 815 813 812 811 809 808 807 806 805 804 803 802 800 799 797 796 794 793 791 790 789 788 787 786 785 784